Temp
22 23 23 24 24 24 24 24 24 24 23 24 24 24 26 27 26 27 27 25 25 25 24 24 22 22 22 22 22 21 21 21 21 21 20 20 20 20 20 20 20 20 21
22 22 22 24 25 24 24 24 23 23 23 23 24 24 25 25 27 26 26 25 25 25 25 24 23 23 22 22 22 22 22 22 21 21 21 21 21 21 21 21 20 20 21
23 23 22 23 25 24 23 23 23 23 24 24 24 25 25 25 27 26 26 26 25 25 26 25 24 24 23 23 22 22 22 22 21 21 21 21 21 21 21 21 21 21 20
23 23 23 23 24 24 23 25 24 24 23 24 26 25 25 27 27 27 26 26 26 26 26 25 25 25 24 24 23 23 22 22 22 22 21 21 21 21 21 21 21 21 21
24 23 23 24 23 24 24 24 24 24 24 25 24 26 27 26 27 28 28 28 28 28 27 26 26 25 25 25 24 23 23 22 22 22 22 21 21 21 21 21 21 21 21
26 25 26 27 26 26 25 25 24 24 24 25 25 26 27 27 27 28 28 27 28 28 27 27 26 25 26 25 25 24 24 23 23 22 22 21 21 21 21 21 21 21 21
26 25 26 26 26 26 25 25 26 25 26 26 24 26 28 28 28 28 28 28 27 28 28 28 27 27 27 26 26 25 25 24 23 23 22 22 21 21 21 21 21 21 21
25 25 26 27 27 26 26 26 25 26 28 29 28 28 29 27 30 29 28 28 27 28 28 28 27 27 27 27 26 26 25 24 24 23 23 22 22 22 22 21 21 21 21
26 25 25 25 26 25 27 27 25 26 28 29 28 29 29 28 30 30 29 29 29 29 29 28 28 28 27 27 27 26 25 25 24 23 23 23 22 22 22 22 22 21 21
27 26 26 26 24 25 26 26 26 26 26 27 28 29 28 28 29 28 29 31 29 27 29 29 29 28 28 28 27 27 26 25 25 24 23 23 23 22 22 22 22 22 21
26 26 26 26 24 24 26 25 25 25 24 24 26 27 27 26 26 28 30 30 27 25 27 29 29 29 29 28 28 28 27 26 25 24 24 24 23 23 23 22 22 22 22
27 26 25 25 25 25 24 24 24 25 24 24 24 25 24 25 26 26 25 27 29 28 28 27 30 30 29 29 28 27 26 25 25 24 24 24 24 23 23 23 22 22 22
26 25 24 24 24 24 24 23 24 24 24 24 24 24 24 24 26 27 26 26 27 26 27 28 30 30 30 29 29 28 27 26 25 24 24 24 23 24 23 23 23 23 22
23 23 23 23 23 23 23 24 24 24 24 24 24 24 25 25 25 24 25 24 23 25 27 26 28 30 30 29 29 27 26 26 25 24 24 24 24 24 24 24 23 23 23
22 22 22 21 22 23 23 23 24 24 23 24 24 24 23 24 26 26 24 24 23 23 24 26 27 27 22 28 27 26 26 26 25 25 25 24 24 24 24 24 23 23 23
21 21 21 21 21 21 22 22 23 24 23 23 23 24 24 25 26 25 24 23 23 23 25 27 26 25 24 22 26 25 25 26 25 25 26 25 24 24 24 24 24 23 23
20 20 20 20 21 21 22 21 22 22 23 23 23 24 24 24 23 26 25 24 24 23 23 25 26 25 25 26 26 26 25 25 26 26 26 26 25 25 24 24 24 24 24
19 19 20 20 20 21 21 21 22 22 23 23 23 23 23 23 23 23 24 24 23 23 23 23 23 23 24 25 25 24 24 26 27 27 27 26 25 25 25 25 24 24 24
18 19 19 19 19 20 20 20 21 22 22 22 23 23 23 22 22 22 22 23 24 24 23 22 22 23 23 25 25 25 24 25 25 26 25 25 25 25 25 25 25 24 24
18 19 19 19 19 19 20 20 20 20 20 21 22 23 23 23 22 22 22 22 22 22 23 23 23 23 23 24 25 26 25 25 25 26 26 25 25 24 25 25 25 25 24
18 18 19 19 19 20 18 16 17 18 19 20 21 21 23 24 22 22 21 22 22 21 21 21 22 23 23 24 24 24 23 25 26 26 27 26 25 24 24 24 24 25 24
18 18 18 19 18 19 17 16 15 16 18 19 20 21 22 22 23 23 22 22 21 21 22 21 21 21 22 22 23 23 22 22 24 25 26 26 24 26 25 25 25 26 26
16 16 17 17 16 16 15 15 15 15 17 19 19 20 21 23 22 23 22 21 21 21 21 21 22 22 22 22 21 21 21 21 22 24 25 24 25 27 28 28 27 26 26
16 16 17 17 16 16 15 14 15 16 18 20 20 21 21 21 21 21 21 22 22 21 21 21 20 21 20 20 20 20 20 21 21 23 24 24 25 26 27 27 27 26 26
17 17 18 17 16 16 14 14 15 16 19 20 21 21 21 21 20 20 20 21 22 22 22 22 22 21 21 22 22 21 22 23 24 25 25 24 24 25 27 27 26 26 25
16 17 17 17 16 15 14 14 13 15 18 19 20 21 19 18 18 19 19 20 21 20 21 20 20 22 23 22 22 22 23 24 25 25 25 23 24 24 25 26 26 25 24
Height
834 834 833 833 833 834 835 835 836 836 836 836 836 836 835 834 834 835 834 837 836 838 840 841 843 845 847 849 850 851 851 853 854 857 858 859 860 862 862 863 865 866 867
833 833 833 832 831 832 832 832 833 834 834 833 832 833 834 833 832 833 833 833 834 834 836 838 840 842 843 845 846 848 849 851 852 854 855 856 858 859 860 861 862 863 864
831 831 831 832 831 831 830 831 831 831 831 830 830 829 830 830 828 829 831 831 831 831 832 833 835 837 838 840 842 843 844 847 848 849 851 853 854 856 857 858 859 860 861
829 829 830 830 830 828 829 829 828 828 828 828 827 827 826 825 824 825 826 828 828 828 827 829 830 832 834 835 837 839 840 842 843 845 846 848 850 852 854 855 856 857 858
826 828 827 827 827 828 828 828 828 827 828 826 825 825 823 822 821 821 821 822 822 824 823 823 826 827 829 830 831 834 836 837 839 840 842 844 846 848 849 850 852 853 854
825 826 824 825 827 826 827 826 827 827 826 825 824 822 820 818 817 817 818 819 819 819 821 820 821 823 823 824 826 827 830 832 834 835 837 839 840 843 845 846 847 849 850
825 825 824 822 824 824 825 825 825 824 823 821 821 819 815 813 813 813 813 814 815 815 815 816 819 818 818 819 820 822 824 826 828 830 832 833 835 838 839 841 843 844 845
823 822 822 820 819 822 823 823 824 822 819 817 817 816 809 811 806 808 808 808 808 808 809 810 811 814 815 814 816 817 819 821 823 825 827 829 830 832 834 836 838 840 841
820 820 819 819 819 820 819 820 821 821 817 815 815 815 811 812 806 801 802 801 800 801 801 804 805 808 810 811 812 812 814 816 818 820 822 824 826 827 829 831 833 835 837
818 818 818 817 818 818 817 818 817 817 817 816 812 810 810 809 807 805 800 794 802 802 804 799 797 799 802 805 807 809 809 811 813 815 817 819 819 822 824 826 828 830 832
815 816 816 816 816 815 812 812 814 815 816 817 815 811 811 811 811 806 798 793 802 791 791 796 794 792 795 798 800 802 804 806 808 810 812 814 815 819 819 821 823 825 827
810 811 811 813 813 812 811 811 811 812 812 812 811 810 810 811 809 807 804 797 793 793 793 793 788 786 789 791 793 796 798 801 803 805 807 809 811 814 815 816 818 820 822
809 809 810 810 809 810 810 809 809 808 808 807 807 807 807 807 805 804 803 799 794 790 787 784 780 782 786 788 788 788 792 795 798 800 802 804 806 808 810 812 813 815 817
812 811 811 810 808 807 807 806 805 804 803 802 801 802 801 801 803 802 801 801 799 794 788 788 783 784 783 789 790 787 788 789 792 794 796 798 799 802 805 807 809 809 811
811 811 811 810 808 807 805 804 801 799 798 797 797 797 797 797 796 796 797 798 798 799 791 781 784 787 773 781 789 791 787 787 788 790 791 793 794 797 799 801 802 805 807
812 811 810 808 807 805 803 802 799 797 795 793 793 792 792 791 791 791 792 792 792 793 788 782 783 789 791 778 790 787 786 784 784 786 786 787 789 791 793 795 796 799 801
812 811 809 808 806 804 802 800 798 795 793 791 790 788 786 787 787 786 786 787 787 788 786 779 778 781 785 784 782 782 781 780 779 779 780 782 782 784 786 788 790 792 795
810 809 808 806 804 802 800 798 796 794 791 788 786 784 783 782 782 782 781 781 781 781 783 778 774 772 772 776 775 775 774 773 773 772 773 775 777 778 779 781 783 785 787
808 807 805 803 802 800 798 796 794 791 788 786 784 782 780 779 778 777 777 777 775 776 776 775 769 768 766 766 768 768 769 770 769 768 768 768 768 769 770 772 775 777 780
806 804 803 802 800 798 796 793 791 789 787 785 782 779 777 776 775 773 773 772 771 772 771 770 767 766 765 765 764 765 765 766 763 760 760 759 760 761 762 762 765 768 771
805 803 801 800 798 794 793 792 791 789 786 783 780 777 775 772 770 770 770 768 768 767 767 766 765 763 762 761 763 762 762 761 757 755 753 757 761 762 758 757 756 759 763
804 802 800 798 796 794 791 790 789 787 784 781 777 774 772 769 766 764 764 765 765 764 762 763 761 761 759 760 760 760 759 758 754 750 750 752 743 751 750 751 747 747 752
803 801 799 798 796 793 790 788 786 783 780 776 774 771 769 765 763 762 761 760 759 759 759 759 758 757 757 757 758 757 756 755 751 747 747 748 743 742 741 744 742 741 744
802 800 798 796 794 791 789 785 783 781 777 773 769 767 766 764 763 761 759 757 755 755 754 754 754 754 753 753 753 753 752 751 748 745 744 743 744 742 741 738 736 737 739
801 799 797 795 793 791 787 784 779 777 773 769 766 763 762 761 759 758 756 755 752 751 751 751 752 751 750 749 749 749 747 746 742 740 738 736 734 733 731 730 730 732 735
801 798 796 795 792 791 787 784 780 778 773 770 766 762 761 760 758 755 753 752 751 752 750 750 750 748 746 744 744 742 743 741 739 735 735 736 732 731 728 727 728 730 729
Wind_Speed
4 3 3 2 3 3 5 6 9 9 8 11 12 14 12 12 11 11 8 8 10 10 16 15 15 16 15 15 16 16 16 16 16 15 15 15 13 12 12 12 11 12 12
1 4 4 3 3 3 6 4 6 7 7 9 12 14 13 14 13 11 11 12 12 8 13 15 15 16 16 16 18 18 18 18 18 18 17 16 14 14 14 14 14 14 14
3 5 7 3 2 2 4 4 5 6 6 7 10 13 13 15 14 10 10 14 14 10 11 13 14 15 17 17 17 19 20 19 19 20 19 19 17 16 14 14 15 15 14
8 8 8 7 5 5 3 5 5 2 5 4 7 9 13 15 13 11 12 14 16 13 17 14 12 14 16 17 19 20 20 20 19 20 21 21 20 19 18 16 15 15 15
6 12 10 8 5 6 3 5 6 4 5 7 4 7 10 13 10 13 12 13 14 13 13 15 12 14 15 17 18 19 20 21 22 21 20 21 23 23 19 17 16 16 16
7 8 12 5 5 9 5 4 5 6 8 7 7 11 11 15 14 15 12 15 16 13 15 11 15 16 16 19 21 20 20 21 20 22 21 21 23 23 22 20 18 17 16
7 8 11 11 6 6 6 5 9 9 7 9 6 10 14 12 9 12 13 12 14 18 17 18 14 17 20 20 18 19 22 22 22 21 21 21 22 22 21 20 19 17 17
8 9 10 11 8 8 9 7 7 9 10 8 6 9 6 8 2 6 12 16 17 17 18 17 18 18 15 12 19 17 17 22 24 23 22 22 22 22 22 22 21 19 19
8 10 10 12 8 9 11 9 9 10 11 10 7 7 5 1 7 12 10 12 11 16 16 16 15 16 15 16 14 15 17 19 21 24 24 23 22 22 22 22 21 21 21
9 11 12 12 12 12 11 12 14 12 9 13 16 12 10 10 7 5 13 10 4 8 12 12 12 15 15 16 17 18 14 16 17 21 23 23 22 22 22 22 22 22 22
12 14 14 14 14 14 15 14 12 12 12 13 15 13 11 8 12 12 9 7 5 1 17 12 9 10 18 15 14 16 18 21 21 20 22 22 23 23 23 22 22 22 22
11 9 7 13 14 16 16 12 12 12 13 16 16 16 12 9 11 13 5 13 18 8 17 19 12 12 13 13 14 14 13 18 20 23 23 23 21 23 24 24 23 23 22
11 13 10 10 12 13 12 13 13 13 14 15 15 15 15 15 16 17 14 15 12 20 24 23 16 15 15 15 13 13 13 16 21 21 24 25 25 23 23 23 24 25 24
8 9 9 10 11 11 11 12 12 14 16 15 17 17 15 16 16 20 17 11 6 9 23 8 33 12 14 14 10 6 6 14 15 18 23 23 24 23 22 23 24 25 25
9 11 11 11 11 11 10 12 14 16 15 15 16 18 19 19 18 19 21 21 15 3 5 22 2 10 24 3 5 6 7 10 11 12 17 21 24 25 24 21 24 26 26
10 12 13 13 14 13 10 11 13 13 13 15 18 19 19 18 19 14 14 18 17 16 11 20 19 6 5 16 9 8 11 16 17 15 14 19 23 27 29 26 24 26 26
11 12 12 12 12 13 12 12 14 15 15 14 16 17 17 18 19 21 17 17 18 18 11 23 18 16 12 17 16 17 15 16 18 22 21 19 23 26 28 28 28 28 30
11 12 12 13 13 12 12 13 14 15 17 16 16 16 16 18 19 18 17 19 20 21 19 17 21 21 19 19 17 16 16 18 22 19 24 19 20 22 27 27 28 29 29
11 11 11 12 13 13 13 13 14 15 14 16 17 15 16 15 18 17 19 20 19 19 20 18 22 19 17 20 18 19 18 18 21 22 23 25 25 25 25 29 28 30 31
12 12 12 11 11 12 13 13 11 11 13 16 19 20 18 15 15 15 16 17 18 18 19 19 21 19 17 21 22 17 16 19 21 20 22 25 25 26 27 29 30 29 31
12 13 13 12 13 12 11 13 14 16 17 17 19 19 20 20 14 17 16 17 15 16 16 16 17 17 17 19 17 14 17 18 20 17 21 21 19 21 25 24 29 31 33
13 14 14 13 13 13 18 19 17 15 16 17 18 19 18 21 21 18 17 19 20 19 18 16 16 15 17 15 16 15 14 13 11 22 16 23 16 27 24 28 28 32 34
13 13 13 13 14 14 15 18 20 18 17 16 17 18 19 19 21 14 15 18 18 19 22 21 19 18 17 15 14 15 16 15 18 22 21 16 17 16 16 18 23 29 30
12 13 14 14 14 12 17 19 21 16 16 16 16 16 18 18 17 17 16 16 16 15 16 17 18 17 14 13 11 12 14 14 18 22 21 19 17 20 21 22 21 21 28
12 12 12 12 11 12 17 20 23 17 16 17 16 13 14 15 15 19 19 16 17 12 13 14 13 9 12 14 15 12 14 14 15 20 19 20 22 25 22 19 15 21 22
13 12 13 13 9 11 14 20 25 17 17 17 16 13 10 11 14 14 12 13 14 12 10 7 12 13 13 13 11 13 11 14 14 14 15 18 21 19 15 18 18 15 15
Wind_Direction
18 326 337 252 254 239 243 249 248 249 244 251 250 249 253 258 256 258 268 252 233 251 237 235 228 232 237 238 243 242 237 228 227 228 228 234 236 239 240 245 244 246 249
304 316 323 314 228 236 248 271 261 257 251 252 246 248 248 257 247 247 264 244 244 250 233 231 224 235 243 247 243 241 243 237 234 234 238 240 238 237 239 244 246 248 248
242 273 281 295 327 283 296 261 246 243 248 250 260 248 241 241 249 232 248 252 220 238 225 228 234 236 238 242 244 243 241 241 240 242 243 238 241 243 245 246 249 252 253
246 259 259 249 246 277 274 281 238 225 271 252 267 254 270 259 224 232 225 234 246 224 240 224 230 235 240 241 243 243 242 242 243 244 242 241 241 246 248 248 250 255 257
213 236 229 236 223 258 292 292 329 327 316 272 254 264 263 272 278 255 244 235 237 239 231 228 234 237 244 243 241 242 245 245 244 243 243 241 238 243 247 248 249 255 255
197 221 231 217 238 238 258 276 309 301 279 290 289 292 277 256 239 238 243 246 249 235 240 236 224 229 249 245 241 239 241 242 242 241 241 242 240 241 246 247 249 254 251
233 232 262 218 221 278 206 255 268 247 280 248 232 290 264 241 241 247 238 238 245 244 238 239 243 251 253 240 239 240 241 241 241 243 242 239 238 239 241 244 247 250 248
235 240 245 270 226 258 249 247 261 296 279 257 270 278 300 189 233 269 233 227 229 236 240 230 233 232 252 243 237 241 241 242 241 240 242 242 239 239 240 243 247 249 247
249 256 262 255 263 249 261 256 241 251 276 290 261 286 288 272 296 236 218 238 241 230 223 227 235 241 237 246 240 233 246 249 243 239 240 241 242 242 240 242 245 246 244
269 271 268 261 266 257 260 254 251 249 279 291 306 286 250 319 294 311 245 255 210 288 234 231 249 227 230 238 240 245 252 244 243 237 236 240 240 242 242 243 243 242 241
257 261 263 267 269 264 257 251 270 274 268 260 269 300 299 276 264 274 283 291 173 333 284 239 244 234 219 226 250 248 248 250 245 237 233 236 240 241 242 241 242 241 239
257 224 264 262 265 270 278 278 268 266 256 256 262 271 267 259 276 258 275 283 297 215 206 222 241 220 230 229 227 242 245 250 254 243 237 234 239 242 242 241 241 243 241
326 343 333 302 281 272 272 271 267 267 266 263 262 257 253 255 259 275 281 296 305 308 305 305 231 227 220 220 229 225 247 257 251 246 242 242 247 242 239 241 242 241 241
329 335 327 327 313 292 285 282 281 273 267 260 258 252 253 255 253 251 255 259 289 277 281 244 275 278 230 230 232 207 244 259 263 252 243 248 238 234 235 243 243 240 238
330 327 326 325 316 312 293 280 279 289 282 266 263 257 250 254 259 251 244 245 229 274 277 289 318 290 298 9 261 276 272 264 271 271 252 248 236 231 231 252 246 238 239
320 318 317 322 320 315 311 304 293 293 295 284 272 265 266 257 260 259 241 238 235 235 266 275 293 258 299 275 270 259 265 262 256 253 252 248 240 238 241 250 246 237 239
318 314 312 309 307 306 306 310 304 301 293 293 288 280 276 266 262 258 255 245 240 236 245 270 278 288 299 287 275 261 266 261 254 256 250 249 244 241 243 245 242 240 239
319 313 310 308 308 307 305 301 296 294 294 301 293 291 281 274 267 260 258 249 241 240 235 259 272 278 276 274 260 263 265 256 256 258 245 246 255 252 244 242 241 241 240
329 328 325 319 313 310 307 302 297 293 294 295 296 294 291 284 280 274 263 260 251 247 242 245 261 273 270 275 274 255 252 262 260 259 262 255 247 249 247 240 242 241 241
333 334 331 326 323 318 308 308 318 324 311 303 301 299 302 286 279 279 275 266 262 258 251 246 256 265 259 263 265 271 260 259 250 245 246 247 247 247 247 238 238 240 240
333 332 331 333 333 332 22 356 331 312 298 292 292 296 286 291 277 274 274 273 269 262 256 252 252 261 263 271 269 266 256 267 276 259 252 242 242 246 243 241 239 240 243
329 332 331 334 336 333 331 333 329 314 300 292 287 287 291 293 276 270 276 272 268 271 268 257 261 255 258 262 269 265 264 262 263 269 284 254 266 234 232 230 238 240 241
331 330 329 330 333 332 331 334 335 326 311 303 295 288 285 281 319 304 290 286 276 270 258 262 272 266 272 275 286 282 272 267 262 269 281 287 288 284 276 240 240 248 248
324 327 325 327 332 339 330 335 332 325 315 308 300 291 282 283 293 309 306 295 283 277 270 259 258 269 279 279 278 280 278 277 279 272 269 270 270 265 268 262 268 278 252
328 327 336 335 343 343 337 344 343 338 330 325 319 299 286 289 300 296 300 292 290 288 290 269 249 272 288 281 278 273 271 263 274 268 267 265 271 278 270 274 262 279 267
322 335 337 336 349 345 341 356 357 349 339 334 327 324 340 336 331 326 313 296 291 298 300 278 283 288 283 271 261 249 255 259 265 274 284 271 279 289 292 270 270 269 270